• în Republica Moldova
  • Lista ţărilor
  • Pe 7 zile
  • Temperatura apei
  • Hartă satelitară
  • Meteo pe hartă
  • Widget-uri
  • user-avatar
    Intrare

    Meteo pe oră la Yurevka

    Astăzi, 25 Mai, Vineri

    Timp Temperatura Precipitaţii Vânt Presiune Umiditate
    00:00 +13°C° 0 mm 4 m/s 750 mmHg 87%
    01:00 +13°C° 0 mm 4 m/s 750 mmHg 88%
    02:00 +12°C° 0 mm 3 m/s 750 mmHg 93%
    03:00 +12°C° 0 mm 4 m/s 751 mmHg 93%
    04:00 +13°C° 0 mm 4 m/s 751 mmHg 93%
    05:00 +13°C° 0 mm 5 m/s 751 mmHg 92%
    06:00 +14°C° 0 mm 5 m/s 751 mmHg 87%
    07:00 +15°C° 0 mm 6 m/s 752 mmHg 82%
    08:00 +17°C° 0 mm 6 m/s 752 mmHg 76%
    09:00 +17°C° 0 mm 6 m/s 752 mmHg 71%
    10:00 +19°C° 0 mm 6 m/s 752 mmHg 66%
    11:00 +20°C° 0 mm 7 m/s 753 mmHg 61%
    12:00 +20°C° 0 mm 7 m/s 753 mmHg 58%
    13:00 +18°C° 0 mm 7 m/s 753 mmHg 55%
    14:00 +18°C° 0 mm 7 m/s 753 mmHg 53%
    15:00 +19°C° 0 mm 6 m/s 753 mmHg 55%
    16:00 +17°C° 0 mm 6 m/s 754 mmHg 58%
    17:00 +17°C° 0 mm 5 m/s 754 mmHg 60%
    18:00 +15°C° 0 mm 5 m/s 754 mmHg 63%
    19:00 +14°C° 0 mm 5 m/s 755 mmHg 65%
    20:00 +13°C° 0 mm 5 m/s 755 mmHg 67%
    21:00 +12°C° 0 mm 4 m/s 756 mmHg 67%
    22:00 +11°C° 0 mm 4 m/s 756 mmHg 67%
    23:00 +11°C° 0 mm 4 m/s 757 mmHg 67%

    Mâine, 26 Mai, Sâmbătă

    Timp Temperatura Precipitaţii Vânt Presiune Umiditate
    00:00 +10°C° 0 mm 4 m/s 757 mmHg 68%
    01:00 +8°C° 0 mm 4 m/s 758 mmHg 68%
    02:00 +9°C° 0 mm 3 m/s 758 mmHg 69%
    03:00 +9°C° 0 mm 3 m/s 759 mmHg 70%
    04:00 +9°C° 0 mm 3 m/s 759 mmHg 71%
    05:00 +9°C° 0 mm 3 m/s 760 mmHg 73%
    06:00 +10°C° 0 mm 4 m/s 760 mmHg 67%
    07:00 +12°C° 0 mm 4 m/s 761 mmHg 61%
    08:00 +13°C° 0 mm 4 m/s 761 mmHg 55%
    09:00 +14°C° 0 mm 4 m/s 761 mmHg 53%
    10:00 +15°C° 0 mm 5 m/s 761 mmHg 51%
    11:00 +16°C° 0 mm 5 m/s 761 mmHg 48%
    12:00 +16°C° 0 mm 5 m/s 761 mmHg 49%
    13:00 +18°C° 0 mm 4 m/s 761 mmHg 49%
    14:00 +18°C° 0 mm 4 m/s 761 mmHg 49%
    15:00 +18°C° 0 mm 4 m/s 760 mmHg 51%
    16:00 +18°C° 0 mm 3 m/s 760 mmHg 53%
    17:00 +17°C° 0 mm 3 m/s 760 mmHg 55%
    18:00 +16°C° 0 mm 2 m/s 760 mmHg 59%
    19:00 +14°C° 0 mm 2 m/s 760 mmHg 64%
    20:00 +12°C° 0 mm 1 m/s 760 mmHg 69%
    21:00 +11°C° 0 mm 1 m/s 760 mmHg 70%
    22:00 +11°C° 0 mm 1 m/s 761 mmHg 72%
    23:00 +10°C° 0 mm 1 m/s 761 mmHg 73%

    Poimâine, 27 Mai, Duminică

    Timp Temperatura Precipitaţii Vânt Presiune Umiditate
    00:00 +10°C° 0 mm 1 m/s 761 mmHg 74%
    01:00 +9°C° 0 mm 1 m/s 761 mmHg 75%
    02:00 +9°C° 0 mm 1 m/s 761 mmHg 76%
    03:00 +9°C° 0 mm 1 m/s 761 mmHg 76%
    04:00 +10°C° 0 mm 1 m/s 761 mmHg 77%
    05:00 +10°C° 0 mm 1 m/s 761 mmHg 77%
    06:00 +12°C° 0 mm 1 m/s 761 mmHg 71%
    07:00 +14°C° 0 mm 2 m/s 760 mmHg 65%
    08:00 +16°C° 0 mm 2 m/s 760 mmHg 59%
    09:00 +17°C° 0 mm 2 m/s 760 mmHg 56%
    10:00 +18°C° 0 mm 2 m/s 759 mmHg 52%
    11:00 +19°C° 0 mm 2 m/s 759 mmHg 49%
    12:00 +19°C° 0 mm 3 m/s 759 mmHg 49%
    13:00 +20°C° 0 mm 3 m/s 758 mmHg 49%
    14:00 +20°C° 0 mm 3 m/s 757 mmHg 49%
    15:00 +20°C° 0 mm 3 m/s 757 mmHg 53%
    16:00 +20°C° 0 mm 3 m/s 756 mmHg 56%
    17:00 +19°C° 0 mm 3 m/s 756 mmHg 60%
    18:00 +18°C° 0 mm 3 m/s 756 mmHg 65%
    19:00 +16°C° 0 mm 3 m/s 755 mmHg 70%
    20:00 +13°C° 0 mm 3 m/s 755 mmHg 75%
    21:00 +13°C° 0 mm 3 m/s 755 mmHg 76%
    22:00 +12°C° 0 mm 3 m/s 755 mmHg 77%
    23:00 +11°C° 0 mm 3 m/s 755 mmHg 78%

    28 Mai, Luni

    Timp Temperatura Precipitaţii Vânt Presiune Umiditate
    00:00 +11°C° 0 mm 3 m/s 755 mmHg 80%
    01:00 +11°C° 0 mm 3 m/s 755 mmHg 82%
    02:00 +11°C° 0 mm 3 m/s 756 mmHg 84%
    03:00 +11°C° 0 mm 3 m/s 756 mmHg 85%
    04:00 +11°C° 0 mm 3 m/s 756 mmHg 86%
    05:00 +12°C° 0 mm 3 m/s 756 mmHg 87%
    06:00 +13°C° 0 mm 3 m/s 756 mmHg 79%
    07:00 +16°C° 0 mm 3 m/s 756 mmHg 71%
    08:00 +18°C° 0 mm 4 m/s 757 mmHg 63%
    09:00 +18°C° 0 mm 4 m/s 757 mmHg 59%
    10:00 +19°C° 0 mm 4 m/s 757 mmHg 55%
    11:00 +20°C° 0 mm 4 m/s 757 mmHg 51%
    12:00 +20°C° 0 mm 4 m/s 757 mmHg 50%
    13:00 +20°C° 0 mm 4 m/s 757 mmHg 50%
    14:00 +21°C° 0 mm 4 m/s 757 mmHg 50%
    15:00 +20°C° 0 mm 3 m/s 757 mmHg 53%
    16:00 +20°C° 0 mm 3 m/s 757 mmHg 56%
    17:00 +20°C° 0 mm 3 m/s 757 mmHg 59%
    18:00 +18°C° 0 mm 3 m/s 757 mmHg 62%
    19:00 +16°C° 0 mm 3 m/s 758 mmHg 65%
    20:00 +12°C° 0 mm 3 m/s 758 mmHg 68%
    21:00 +11°C° 0 mm 3 m/s 758 mmHg 68%
    22:00 +10°C° 0 mm 2 m/s 759 mmHg 67%
    23:00 +9°C° 0 mm 2 m/s 759 mmHg 66%

    29 Mai, Marţi

    Timp Temperatura Precipitaţii Vânt Presiune Umiditate
    00:00 +9°C° 0 mm 2 m/s 759 mmHg 67%
    01:00 +8°C° 0 mm 2 m/s 760 mmHg 68%
    02:00 +9°C° 0 mm 1 m/s 760 mmHg 69%
    03:00 +9°C° 0 mm 1 m/s 760 mmHg 69%
    04:00 +10°C° 0 mm 1 m/s 760 mmHg 69%
    05:00 +11°C° 0 mm 1 m/s 760 mmHg 70%
    06:00 +13°C° 0 mm 1 m/s 760 mmHg 64%
    07:00 +15°C° 0 mm 2 m/s 760 mmHg 58%
    08:00 +16°C° 0 mm 2 m/s 760 mmHg 52%
    09:00 +18°C° 0 mm 2 m/s 759 mmHg 50%
    10:00 +19°C° 0 mm 2 m/s 759 mmHg 48%
    11:00 +20°C° 0 mm 3 m/s 759 mmHg 46%
    12:00 +21°C° 0 mm 3 m/s 759 mmHg 46%
    13:00 +22°C° 0 mm 3 m/s 758 mmHg 47%
    14:00 +22°C° 0 mm 3 m/s 758 mmHg 47%
    15:00 +22°C° 0 mm 3 m/s 757 mmHg 51%
    16:00 +22°C° 0 mm 3 m/s 757 mmHg 55%
    17:00 +23°C° 0 mm 2 m/s 757 mmHg 59%
    18:00 +20°C° 0 mm 2 m/s 756 mmHg 63%
    19:00 +18°C° 0 mm 2 m/s 756 mmHg 67%
    20:00 +16°C° 0 mm 2 m/s 756 mmHg 71%
    21:00 +15°C° 0 mm 2 m/s 756 mmHg 72%
    22:00 +15°C° 0 mm 2 m/s 756 mmHg 73%
    23:00 +14°C° 0 mm 2 m/s 756 mmHg 74%

    30 Mai, Miercuri

    Timp Temperatura Precipitaţii Vânt Presiune Umiditate
    00:00 +13°C° 0 mm 3 m/s 756 mmHg 75%
    01:00 +12°C° 0 mm 3 m/s 755 mmHg 76%
    02:00 +12°C° 0 mm 3 m/s 755 mmHg 77%
    03:00 +12°C° 0 mm 3 m/s 755 mmHg 78%
    04:00 +13°C° 0 mm 3 m/s 755 mmHg 78%
    05:00 +13°C° 0 mm 4 m/s 754 mmHg 79%
    06:00 +15°C° 0 mm 4 m/s 754 mmHg 75%
    07:00 +17°C° 0 mm 5 m/s 753 mmHg 71%
    08:00 +20°C° 0 mm 5 m/s 753 mmHg 67%
    09:00 +21°C° 0 mm 6 m/s 752 mmHg 64%
    10:00 +22°C° 0 mm 6 m/s 752 mmHg 62%
    11:00 +23°C° 0 mm 7 m/s 751 mmHg 59%
    12:00 +24°C° 0 mm 7 m/s 751 mmHg 58%
    13:00 +24°C° 0 mm 7 m/s 750 mmHg 58%
    14:00 +26°C° 0 mm 7 m/s 750 mmHg 57%
    15:00 +24°C° 0 mm 6 m/s 749 mmHg 61%
    16:00 +24°C° 0 mm 6 m/s 749 mmHg 64%
    17:00 +25°C° 0 mm 5 m/s 748 mmHg 67%
    18:00 +22°C° 0 mm 5 m/s 748 mmHg 71%
    19:00 +21°C° 0 mm 5 m/s 748 mmHg 75%
    20:00 +19°C° 0 mm 4 m/s 748 mmHg 79%
    21:00 +19°C° 0 mm 4 m/s 747 mmHg 81%
    22:00 +18°C° 0 mm 4 m/s 747 mmHg 84%
    23:00 +17°C° 0 mm 5 m/s 747 mmHg 86%
    Arată mai mult